TimeEST,TemperatureF,Dew PointF,Humidity,Sea Level PressureIn,VisibilityMPH,Wind Direction,Wind SpeedMPH,Gust SpeedMPH,PrecipitationIn,Events,Conditions,WindDirDegrees,DateUTC
12:15 AM,24.8,15.8,69,29.96,10.0,Calm,Calm,-,N/A,,Overcast,0,2013-02-15 05:15:00
12:35 AM,24.8,17.6,74,29.96,10.0,Calm,Calm,-,N/A,,Overcast,0,2013-02-15 05:35:00
12:55 AM,26.6,17.6,69,29.96,10.0,Calm,Calm,-,N/A,,Overcast,0,2013-02-15 05:55:00
1:15 AM,26.6,17.6,69,29.96,10.0,Calm,Calm,-,N/A,,Mostly Cloudy,0,2013-02-15 06:15:00
1:35 AM,26.6,17.6,69,29.96,10.0,Calm,Calm,-,N/A,,Scattered Clouds,0,2013-02-15 06:35:00
1:55 AM,24.8,17.6,74,29.96,10.0,Calm,Calm,-,N/A,,Partly Cloudy,0,2013-02-15 06:55:00
2:15 AM,24.8,17.6,74,29.95,10.0,Calm,Calm,-,N/A,,Clear,0,2013-02-15 07:15:00
2:35 AM,24.8,17.6,74,29.95,10.0,Calm,Calm,-,N/A,,Clear,0,2013-02-15 07:35:00
2:55 AM,24.8,17.6,74,29.95,10.0,Calm,Calm,-,N/A,,Clear,0,2013-02-15 07:55:00
3:15 AM,23.0,17.6,80,29.95,10.0,North,3.5,-,N/A,,Clear,10,2013-02-15 08:15:00
3:35 AM,23.0,17.6,80,29.94,10.0,Calm,Calm,-,N/A,,Clear,0,2013-02-15 08:35:00
3:55 AM,24.8,19.4,80,29.95,10.0,Calm,Calm,-,N/A,,Clear,0,2013-02-15 08:55:00
4:35 AM,23.0,17.6,80,29.95,10.0,Calm,Calm,-,N/A,,Mostly Cloudy,0,2013-02-15 09:35:00
4:55 AM,23.0,19.4,86,29.94,10.0,Calm,Calm,-,N/A,,Overcast,0,2013-02-15 09:55:00
5:15 AM,24.8,17.6,74,29.94,10.0,Calm,Calm,-,N/A,,Mostly Cloudy,0,2013-02-15 10:15:00
5:35 AM,24.8,19.4,80,29.93,10.0,Calm,Calm,-,N/A,,Mostly Cloudy,0,2013-02-15 10:35:00
5:55 AM,21.2,19.4,93,29.93,10.0,Calm,Calm,-,N/A,,Mostly Cloudy,0,2013-02-15 10:55:00
6:15 AM,21.2,17.6,86,29.93,10.0,Calm,Calm,-,N/A,,Scattered Clouds,0,2013-02-15 11:15:00
6:35 AM,21.2,17.6,86,29.92,10.0,NNE,4.6,-,N/A,,Clear,20,2013-02-15 11:35:00
6:55 AM,19.4,17.6,93,29.93,10.0,Calm,Calm,-,N/A,,Partly Cloudy,0,2013-02-15 11:55:00
7:15 AM,19.4,15.8,86,29.92,9.0,Calm,Calm,-,N/A,,Mostly Cloudy,0,2013-02-15 12:15:00
7:35 AM,21.2,17.6,86,29.93,10.0,Calm,Calm,-,N/A,,Overcast,0,2013-02-15 12:35:00
7:55 AM,24.8,17.6,74,29.92,10.0,Calm,Calm,-,N/A,,Overcast,0,2013-02-15 12:55:00
8:15 AM,24.8,19.4,80,29.93,10.0,Calm,Calm,-,N/A,,Overcast,0,2013-02-15 13:15:00
8:35 AM,24.8,21.2,86,29.93,10.0,SW,5.8,-,N/A,,Overcast,220,2013-02-15 13:35:00
8:55 AM,26.6,21.2,80,29.94,10.0,SSW,5.8,-,N/A,,Overcast,210,2013-02-15 13:55:00
9:15 AM,28.4,23.0,80,29.93,10.0,SSE,3.5,-,N/A,,Overcast,160,2013-02-15 14:15:00
9:35 AM,28.4,21.2,74,29.93,10.0,South,3.5,-,N/A,,Overcast,180,2013-02-15 14:35:00
9:55 AM,28.4,21.2,74,29.93,10.0,South,5.8,-,N/A,,Overcast,190,2013-02-15 14:55:00
10:15 AM,30.2,23.0,75,29.92,10.0,South,5.8,-,N/A,,Overcast,180,2013-02-15 15:15:00
10:35 AM,33.8,24.8,70,29.91,10.0,South,6.9,-,N/A,,Scattered Clouds,180,2013-02-15 15:35:00
10:55 AM,35.6,24.8,65,29.92,10.0,SSW,9.2,-,N/A,,Scattered Clouds,210,2013-02-15 15:55:00
11:15 AM,35.6,26.6,70,29.91,10.0,South,10.4,-,N/A,,Scattered Clouds,190,2013-02-15 16:15:00
11:35 AM,37.4,26.6,65,29.90,10.0,SSW,11.5,16.1,N/A,,Partly Cloudy,210,2013-02-15 16:35:00
11:55 AM,39.2,28.4,65,29.89,10.0,SSW,11.5,-,N/A,,Clear,200,2013-02-15 16:55:00
12:15 PM,39.2,28.4,65,29.89,10.0,SSW,9.2,16.1,N/A,,Partly Cloudy,200,2013-02-15 17:15:00
12:55 PM,39.2,28.4,65,29.88,10.0,South,6.9,-,N/A,,Mostly Cloudy,180,2013-02-15 17:55:00
1:15 PM,41.0,28.4,61,29.87,10.0,SSW,6.9,-,N/A,,Overcast,200,2013-02-15 18:15:00
1:35 PM,42.8,28.4,57,29.87,10.0,South,9.2,16.1,N/A,,Mostly Cloudy,170,2013-02-15 18:35:00
1:55 PM,42.8,28.4,57,29.86,10.0,South,9.2,-,N/A,,Clear,190,2013-02-15 18:55:00
2:15 PM,42.8,28.4,57,29.86,10.0,SSW,9.2,-,N/A,,Clear,200,2013-02-15 19:15:00
2:35 PM,42.8,28.4,57,29.86,10.0,South,8.1,-,N/A,,Clear,180,2013-02-15 19:35:00
2:55 PM,42.8,28.4,57,29.87,10.0,South,5.8,-,N/A,,Clear,170,2013-02-15 19:55:00
3:15 PM,42.8,28.4,57,29.87,10.0,South,8.1,16.1,N/A,,Partly Cloudy,190,2013-02-15 20:15:00
3:35 PM,42.8,28.4,57,29.88,10.0,SSW,8.1,-,N/A,,Clear,200,2013-02-15 20:35:00
3:55 PM,42.8,28.4,57,29.87,10.0,SSW,10.4,-,N/A,,Clear,200,2013-02-15 20:55:00
4:15 PM,42.8,28.4,57,29.87,10.0,South,5.8,-,N/A,,Clear,190,2013-02-15 21:15:00
4:35 PM,41.0,28.4,61,29.87,10.0,South,4.6,-,N/A,,Clear,170,2013-02-15 21:35:00
4:55 PM,39.2,28.4,65,29.88,10.0,South,4.6,-,N/A,,Clear,180,2013-02-15 21:55:00
5:15 PM,39.2,30.2,70,29.88,10.0,South,4.6,-,N/A,,Clear,180,2013-02-15 22:15:00
5:35 PM,39.2,28.4,65,29.88,10.0,Calm,Calm,-,N/A,,Clear,0,2013-02-15 22:35:00
5:55 PM,39.2,30.2,70,29.88,10.0,South,3.5,-,N/A,,Clear,180,2013-02-15 22:55:00
6:35 PM,37.4,30.2,75,29.88,10.0,South,3.5,-,N/A,,Partly Cloudy,190,2013-02-15 23:35:00
6:55 PM,35.6,30.2,81,29.88,10.0,SW,3.5,-,N/A,,Clear,220,2013-02-15 23:55:00
7:15 PM,35.6,30.2,81,29.88,10.0,SW,3.5,-,N/A,,Scattered Clouds,220,2013-02-16 00:15:00
7:35 PM,35.6,30.2,81,29.88,10.0,SW,3.5,-,N/A,,Mostly Cloudy,220,2013-02-16 00:35:00
7:55 PM,35.6,30.2,81,29.89,10.0,WSW,3.5,-,N/A,,Scattered Clouds,240,2013-02-16 00:55:00
8:15 PM,35.6,30.2,81,29.89,9.0,SW,4.6,-,N/A,,Clear,230,2013-02-16 01:15:00
8:35 PM,35.6,32.0,87,29.89,9.0,WSW,5.8,-,N/A,,Clear,240,2013-02-16 01:35:00
8:55 PM,33.8,30.2,87,29.89,8.0,West,3.5,-,N/A,,Clear,260,2013-02-16 01:55:00
9:15 PM,33.8,32.0,93,29.90,7.0,SW,3.5,-,N/A,,Partly Cloudy,230,2013-02-16 02:15:00
9:35 PM,33.8,30.2,87,29.90,5.0,Calm,Calm,-,N/A,,Scattered Clouds,0,2013-02-16 02:35:00
9:55 PM,32.0,30.2,93,29.90,4.0,ENE,3.5,-,N/A,,Mostly Cloudy,70,2013-02-16 02:55:00
10:15 PM,30.2,30.2,100,29.90,3.0,Calm,Calm,-,N/A,,Mostly Cloudy,0,2013-02-16 03:15:00
10:35 PM,28.4,26.6,93,29.90,2.5,Calm,Calm,-,N/A,,Mostly Cloudy,0,2013-02-16 03:35:00
10:55 PM,28.4,28.4,100,29.90,1.5,Calm,Calm,-,N/A,,Scattered Clouds,0,2013-02-16 03:55:00
11:15 PM,30.2,28.4,93,29.90,1.0,Calm,Calm,-,N/A,,Mostly Cloudy,0,2013-02-16 04:15:00
11:35 PM,28.4,28.4,100,29.90,3.0,Calm,Calm,-,N/A,,Overcast,0,2013-02-16 04:35:00
11:55 PM,28.4,28.4,100,29.91,2.0,Calm,Calm,-,N/A,,Overcast,0,2013-02-16 04:55:00